Location: ??????????
(54.7560°N, 39.1389°E)
Time: 04:41:28
(UTC+00:00)

ASTEX 1 - Pass Details

Date: 19 May 2025
Orbit: 715 x 734 km, 92.7° (Epoch: 19 June)

Event Time Altitude Azimuth Distance (km) Brightness Sun altitude
Rises 21:36:36 0° 5° (N) 3,163 8.6 -15.2°
Reaches altitude 10° 21:38:54 10° 4° (N) 2,240 7.3 -15.2°
Maximum altitude 21:43:51 77° 279° (W) 757 3.4 -15.1°
Enters shadow 21:46:53 24° 197° (SSW) 1,500 4.4 -15.1°
